Find Kosmos-2379

NORAD ID: 26892 Int'l Des: 2001-037 Owner: PVO Country: RU operational
MEOCIRCULAR

Aktuelle Ansicht

3D-Globus wird geladen...

Über Kosmos-2379

Beschreibung wird geladen...

Nächste Überflüge

Passes for default location (London). Set your location on the main map for personalized predictions.

Höhenverlauf

Loading altitude history...

Zweizeiliger Elementsatz

1 26892U 01037A 26151.45634475 -.00000332 00000-0 00000+0 0 9999
2 26892 13.2482 14.4030 0005376 241.3318 290.7004 1.00280359 90698
Epoch: 31. Mai 2026 • Age: 11 hours

Aktueller Status

Höhe 35789.1 km
Geschwindigkeit 3.07 km/s
Subsatellitenpunkt -3.81°S, 133.69°E
Startdatum 24. Aug. 2001
Alter 24.7 years
Typ other

Technische Details

Klassifizierung Payload
Masse 2200.00 kg
Trockenmasse 2100.00 kg
Gesamtmasse 2200.00 kg
Länge 5.00 m
Durchmesser 2.00 m
Spannweite 10.00 m
Form Step Cyl + 2 Pan
Hersteller NPOL/KOMET
Bus-Typ Prognoz
Phasenstatus In Orbit
Besitzer/Staat PVO/RU

Most Searched